Time,TemperatureF,DewpointF,PressureIn,WindDirection,WindDirectionDegrees,WindSpeedMPH,WindSpeedGustMPH,Humidity,HourlyPrecipIn,Conditions,Clouds,dailyrainin,SoftwareType,DateUTC
2013-08-25 00:02:00,79.0,71.2,29.80,WSW,250,7.0,18.0,77,0.00,,---,0.00,VWS V14.01,2013-08-25 05:02:00,
2013-08-25 00:07:00,78.8,71.0,29.80,West,268,12.0,18.0,77,0.00,,---,0.00,VWS V14.01,2013-08-25 05:07:00,
2013-08-25 00:12:00,78.8,71.0,29.80,West,260,9.0,16.0,77,0.00,,---,0.00,VWS V14.01,2013-08-25 05:12:00,
2013-08-25 00:17:00,78.6,70.8,29.79,SW,226,12.0,17.0,77,0.00,,---,0.00,VWS V14.01,2013-08-25 05:17:00,
2013-08-25 00:22:00,78.6,70.8,29.79,WSW,239,11.0,22.0,77,0.00,,---,0.00,VWS V14.01,2013-08-25 05:22:00,
2013-08-25 00:27:00,78.6,71.2,29.79,West,281,13.0,22.0,78,0.00,,---,0.00,VWS V14.01,2013-08-25 05:27:00,
2013-08-25 00:32:00,78.5,71.1,29.80,SSW,196,16.0,16.0,78,0.00,,---,0.00,VWS V14.01,2013-08-25 05:32:00,
2013-08-25 00:37:00,78.5,71.1,29.80,WSW,258,12.0,17.0,78,0.00,,---,0.00,VWS V14.01,2013-08-25 05:37:00,
2013-08-25 00:42:00,78.5,71.1,29.80,SW,236,7.0,17.0,78,0.00,,---,0.00,VWS V14.01,2013-08-25 05:42:00,
2013-08-25 00:47:00,78.3,70.9,29.80,WSW,240,7.0,17.0,78,0.00,,---,0.00,VWS V14.01,2013-08-25 05:47:00,
2013-08-25 00:52:00,78.3,70.9,29.80,WSW,241,6.0,13.0,78,0.00,,---,0.00,VWS V14.01,2013-08-25 05:52:00,
2013-08-25 00:57:00,78.3,70.9,29.80,WSW,240,10.0,14.0,78,0.00,,---,0.00,VWS V14.01,2013-08-25 05:57:00,
2013-08-25 01:02:00,78.1,71.1,29.80,WSW,258,9.0,12.0,79,0.00,,---,0.00,VWS V14.01,2013-08-25 06:02:00,
2013-08-25 01:07:00,77.9,70.9,29.80,WSW,239,6.0,17.0,79,0.00,,---,0.00,VWS V14.01,2013-08-25 06:07:00,
2013-08-25 01:12:00,77.9,70.9,29.80,WSW,247,9.0,12.0,79,0.00,,---,0.00,VWS V14.01,2013-08-25 06:12:00,
2013-08-25 01:17:00,77.7,71.0,29.80,WSW,237,9.0,14.0,80,0.00,,---,0.00,VWS V14.01,2013-08-25 06:17:00,
2013-08-25 01:22:00,77.7,71.0,29.80,SW,229,11.0,16.0,80,0.00,,---,0.00,VWS V14.01,2013-08-25 06:22:00,
2013-08-25 01:27:00,77.7,71.0,29.80,WSW,244,10.0,18.0,80,0.00,,---,0.00,VWS V14.01,2013-08-25 06:27:00,
2013-08-25 01:32:00,77.7,71.0,29.80,WSW,237,9.0,17.0,80,0.00,,---,0.00,VWS V14.01,2013-08-25 06:32:00,
2013-08-25 01:37:00,77.6,70.9,29.80,WSW,237,5.0,17.0,80,0.00,,---,0.00,VWS V14.01,2013-08-25 06:37:00,
2013-08-25 01:42:00,77.6,70.9,29.80,SW,224,8.0,15.0,80,0.00,,---,0.00,VWS V14.01,2013-08-25 06:42:00,
2013-08-25 01:47:00,77.6,71.3,29.80,West,263,6.0,15.0,81,0.00,,---,0.00,VWS V14.01,2013-08-25 06:47:00,
2013-08-25 01:52:00,77.2,70.9,29.80,SW,234,7.0,10.0,81,0.00,,---,0.00,VWS V14.01,2013-08-25 06:52:00,
2013-08-25 01:57:00,77.2,70.9,29.80,SW,230,4.0,13.0,81,0.00,,---,0.00,VWS V14.01,2013-08-25 06:57:00,
2013-08-25 02:02:00,77.0,71.1,29.81,SW,233,5.0,10.0,82,0.00,,---,0.00,VWS V14.01,2013-08-25 07:02:00,
2013-08-25 02:07:00,77.0,71.1,29.81,SW,236,7.0,18.0,82,0.00,,---,0.00,VWS V14.01,2013-08-25 07:07:00,
2013-08-25 02:12:00,77.0,71.1,29.81,WSW,239,7.0,13.0,82,0.00,,---,0.00,VWS V14.01,2013-08-25 07:12:00,
2013-08-25 02:17:00,77.0,71.1,29.81,WSW,246,8.0,13.0,82,0.00,,---,0.00,VWS V14.01,2013-08-25 07:17:00,
2013-08-25 02:22:00,76.8,71.2,29.81,WSW,256,12.0,12.0,83,0.00,,---,0.00,VWS V14.01,2013-08-25 07:22:00,
2013-08-25 02:27:00,76.7,71.2,29.81,SW,217,5.0,12.0,83,0.00,,---,0.00,VWS V14.01,2013-08-25 07:27:00,
2013-08-25 02:32:00,76.5,71.0,29.81,WSW,256,6.0,12.0,83,0.00,,---,0.00,VWS V14.01,2013-08-25 07:32:00,
2013-08-25 02:37:00,76.5,71.0,29.81,SW,234,12.0,12.0,83,0.00,,---,0.00,VWS V14.01,2013-08-25 07:37:00,
2013-08-25 02:42:00,76.5,71.0,29.81,West,280,8.0,9.0,83,0.00,,---,0.00,VWS V14.01,2013-08-25 07:42:00,
2013-08-25 02:47:00,76.3,71.1,29.81,SW,234,12.0,14.0,84,0.00,,---,0.00,VWS V14.01,2013-08-25 07:47:00,
2013-08-25 02:52:00,76.3,71.1,29.81,WSW,240,10.0,14.0,84,0.00,,---,0.00,VWS V14.01,2013-08-25 07:52:00,
2013-08-25 02:56:00,76.3,71.1,29.81,WSW,239,10.0,14.0,84,0.00,,---,0.00,VWS V14.01,2013-08-25 07:56:00,
2013-08-25 03:01:00,76.1,70.9,29.81,SW,223,9.0,12.0,84,0.00,,---,0.00,VWS V14.01,2013-08-25 08:01:00,
2013-08-25 03:06:00,76.1,70.9,29.81,SW,220,6.0,13.0,84,0.00,,---,0.00,VWS V14.01,2013-08-25 08:06:00,
2013-08-25 03:11:00,76.0,70.8,29.81,SW,233,6.0,14.0,84,0.00,,---,0.00,VWS V14.01,2013-08-25 08:11:00,
2013-08-25 03:16:00,76.0,70.8,29.81,West,270,7.0,14.0,84,0.00,,---,0.00,VWS V14.01,2013-08-25 08:16:00,
2013-08-25 03:21:00,76.0,71.2,29.81,SW,229,6.0,11.0,85,0.00,,---,0.00,VWS V14.01,2013-08-25 08:21:00,
2013-08-25 03:26:00,75.8,71.0,29.81,SW,236,6.0,13.0,85,0.00,,---,0.00,VWS V14.01,2013-08-25 08:26:00,
2013-08-25 03:31:00,75.8,71.0,29.81,SW,233,5.0,13.0,85,0.00,,---,0.00,VWS V14.01,2013-08-25 08:31:00,
2013-08-25 03:36:00,75.6,70.8,29.81,SW,223,8.0,13.0,85,0.00,,---,0.00,VWS V14.01,2013-08-25 08:36:00,
2013-08-25 03:41:00,75.4,70.9,29.81,SW,234,7.0,11.0,86,0.00,,---,0.00,VWS V14.01,2013-08-25 08:41:00,
2013-08-25 03:46:00,75.4,70.9,29.81,WSW,257,6.0,12.0,86,0.00,,---,0.00,VWS V14.01,2013-08-25 08:46:00,
2013-08-25 03:51:00,75.3,70.8,29.81,SW,233,10.0,10.0,86,0.00,,---,0.00,VWS V14.01,2013-08-25 08:51:00,
2013-08-25 03:56:00,75.3,71.2,29.81,WSW,257,8.0,12.0,87,0.00,,---,0.00,VWS V14.01,2013-08-25 08:56:00,
2013-08-25 04:01:00,75.3,70.8,29.81,WSW,247,11.0,12.0,86,0.00,,---,0.00,VWS V14.01,2013-08-25 09:01:00,
2013-08-25 04:06:00,75.3,70.8,29.81,SW,232,11.0,13.0,86,0.00,,---,0.00,VWS V14.01,2013-08-25 09:06:00,
2013-08-25 04:11:00,75.3,70.8,29.81,WSW,239,5.0,11.0,86,0.00,,---,0.00,VWS V14.01,2013-08-25 09:11:00,
2013-08-25 04:16:00,75.3,71.2,29.81,WSW,248,5.0,11.0,87,0.00,,---,0.00,VWS V14.01,2013-08-25 09:16:00,
2013-08-25 04:21:00,75.1,71.0,29.81,SW,227,6.0,10.0,87,0.00,,---,0.00,VWS V14.01,2013-08-25 09:21:00,
2013-08-25 04:26:00,74.9,70.8,29.81,WSW,243,5.0,12.0,87,0.00,,---,0.00,VWS V14.01,2013-08-25 09:26:00,
2013-08-25 04:31:00,75.1,71.0,29.81,WSW,241,4.0,8.0,87,0.00,,---,0.00,VWS V14.01,2013-08-25 09:31:00,
2013-08-25 04:36:00,75.1,71.0,29.81,West,281,5.0,12.0,87,0.00,,---,0.00,VWS V14.01,2013-08-25 09:36:00,
2013-08-25 04:41:00,75.1,71.0,29.81,West,261,7.0,11.0,87,0.00,,---,0.00,VWS V14.01,2013-08-25 09:41:00,
2013-08-25 04:46:00,75.1,71.0,29.82,WSW,251,6.0,13.0,87,0.00,,---,0.00,VWS V14.01,2013-08-25 09:46:00,
2013-08-25 04:51:00,75.1,71.0,29.82,SW,229,3.0,7.0,87,0.00,,---,0.00,VWS V14.01,2013-08-25 09:51:00,
2013-08-25 04:56:00,75.1,71.0,29.82,WSW,257,6.0,12.0,87,0.00,,---,0.00,VWS V14.01,2013-08-25 09:56:00,
2013-08-25 05:01:00,75.1,71.0,29.82,SW,233,4.0,8.0,87,0.00,,---,0.00,VWS V14.01,2013-08-25 10:01:00,
2013-08-25 05:06:00,75.1,71.0,29.82,SW,229,8.0,11.0,87,0.00,,---,0.00,VWS V14.01,2013-08-25 10:06:00,
2013-08-25 05:11:00,75.1,71.0,29.82,SW,227,5.0,8.0,87,0.00,,---,0.00,VWS V14.01,2013-08-25 10:11:00,
2013-08-25 05:16:00,75.3,70.8,29.82,West,267,6.0,12.0,86,0.00,,---,0.00,VWS V14.01,2013-08-25 10:16:00,
2013-08-25 05:21:00,75.3,70.8,29.82,SW,234,9.0,9.0,86,0.00,,---,0.00,VWS V14.01,2013-08-25 10:21:00,
2013-08-25 05:26:00,75.4,70.9,29.82,WSW,239,13.0,13.0,86,0.00,,---,0.00,VWS V14.01,2013-08-25 10:26:00,
2013-08-25 05:31:00,75.4,70.9,29.82,SW,217,11.0,12.0,86,0.00,,---,0.00,VWS V14.01,2013-08-25 10:31:00,
2013-08-25 05:36:00,75.3,70.8,29.82,SSW,205,7.0,12.0,86,0.00,,---,0.00,VWS V14.01,2013-08-25 10:36:00,
2013-08-25 05:41:00,75.3,70.8,29.82,WSW,237,7.0,10.0,86,0.00,,---,0.00,VWS V14.01,2013-08-25 10:41:00,
2013-08-25 05:46:00,75.3,70.8,29.82,WSW,243,4.0,12.0,86,0.00,,---,0.00,VWS V14.01,2013-08-25 10:46:00,
2013-08-25 05:51:00,75.1,70.6,29.82,SW,236,6.0,9.0,86,0.00,,---,0.00,VWS V14.01,2013-08-25 10:51:00,
2013-08-25 05:56:00,75.1,70.6,29.82,WSW,244,6.0,12.0,86,0.00,,---,0.00,VWS V14.01,2013-08-25 10:56:00,
2013-08-25 06:01:00,74.9,70.8,29.83,SW,232,4.0,8.0,87,0.00,,---,0.00,VWS V14.01,2013-08-25 11:01:00,
2013-08-25 06:06:00,74.9,70.8,29.83,SW,229,6.0,10.0,87,0.00,,---,0.00,VWS V14.01,2013-08-25 11:06:00,
2013-08-25 06:11:00,74.9,70.8,29.83,WSW,244,3.0,7.0,87,0.00,,---,0.00,VWS V14.01,2013-08-25 11:11:00,
2013-08-25 06:16:00,74.9,70.8,29.83,WSW,240,10.0,11.0,87,0.00,,---,0.00,VWS V14.01,2013-08-25 11:16:00,
2013-08-25 06:21:00,74.9,70.8,29.83,SW,232,6.0,9.0,87,0.00,,---,0.00,VWS V14.01,2013-08-25 11:21:00,
2013-08-25 06:26:00,74.9,70.8,29.83,SW,236,5.0,13.0,87,0.00,,---,0.00,VWS V14.01,2013-08-25 11:26:00,
2013-08-25 06:31:00,74.9,70.8,29.83,WSW,253,8.0,12.0,87,0.00,,---,0.00,VWS V14.01,2013-08-25 11:31:00,
2013-08-25 06:36:00,74.7,70.6,29.83,West,271,4.0,12.0,87,0.00,,---,0.00,VWS V14.01,2013-08-25 11:36:00,
2013-08-25 06:41:00,74.7,70.6,29.83,SW,226,8.0,10.0,87,0.00,,---,0.00,VWS V14.01,2013-08-25 11:41:00,
2013-08-25 06:46:00,74.7,70.6,29.83,WSW,250,5.0,11.0,87,0.00,,---,0.00,VWS V14.01,2013-08-25 11:46:00,
2013-08-25 06:51:00,74.7,70.6,29.83,WSW,248,8.0,11.0,87,0.00,,---,0.00,VWS V14.01,2013-08-25 11:51:00,
2013-08-25 06:56:00,74.7,70.6,29.83,WSW,247,8.0,11.0,87,0.00,,---,0.00,VWS V14.01,2013-08-25 11:56:00,
2013-08-25 07:01:00,74.7,70.6,29.83,SW,233,7.0,10.0,87,0.00,,---,0.00,VWS V14.01,2013-08-25 12:01:00,
2013-08-25 07:06:00,74.7,70.6,29.83,SW,230,3.0,13.0,87,0.00,,---,0.00,VWS V14.01,2013-08-25 12:06:00,
2013-08-25 07:11:00,74.6,70.5,29.83,SSW,209,4.0,8.0,87,0.00,,---,0.00,VWS V14.01,2013-08-25 12:11:00,
2013-08-25 07:16:00,74.7,70.6,29.84,SW,227,3.0,11.0,87,0.00,,---,0.00,VWS V14.01,2013-08-25 12:16:00,
2013-08-25 07:21:00,74.7,70.6,29.84,WSW,244,6.0,10.0,87,0.00,,---,0.00,VWS V14.01,2013-08-25 12:21:00,
2013-08-25 07:26:00,74.9,70.4,29.84,SW,220,8.0,13.0,86,0.00,,---,0.00,VWS V14.01,2013-08-25 12:26:00,
2013-08-25 07:31:00,75.1,70.6,29.86,WSW,247,5.0,8.0,86,0.00,,---,0.00,VWS V14.01,2013-08-25 12:31:00,
2013-08-25 07:36:00,75.3,70.8,29.86,SW,226,3.0,16.0,86,0.00,,---,0.00,VWS V14.01,2013-08-25 12:36:00,
2013-08-25 07:41:00,75.3,70.5,29.86,West,267,8.0,8.0,85,0.00,,---,0.00,VWS V14.01,2013-08-25 12:41:00,
2013-08-25 07:46:00,75.6,70.8,29.84,WSW,240,10.0,11.0,85,0.00,,---,0.00,VWS V14.01,2013-08-25 12:46:00,
2013-08-25 07:51:00,75.6,70.4,29.84,WSW,239,2.0,5.0,84,0.00,,---,0.00,VWS V14.01,2013-08-25 12:51:00,
2013-08-25 07:56:00,75.6,70.8,29.84,SW,223,8.0,13.0,85,0.00,,---,0.00,VWS V14.01,2013-08-25 12:56:00,
2013-08-25 08:01:00,75.4,70.6,29.85,SW,216,13.0,13.0,85,0.00,,---,0.00,VWS V14.01,2013-08-25 13:01:00,
2013-08-25 08:06:00,75.3,70.8,29.85,WSW,241,6.0,13.0,86,0.01,,---,0.01,VWS V14.01,2013-08-25 13:06:00,
2013-08-25 08:11:00,74.7,71.2,29.85,West,267,7.0,7.0,89,0.04,,---,0.04,VWS V14.01,2013-08-25 13:11:00,
2013-08-25 08:16:00,74.4,71.6,29.86,SW,233,2.0,7.0,91,0.04,,---,0.04,VWS V14.01,2013-08-25 13:16:00,
2013-08-25 08:21:00,74.2,71.4,29.86,WSW,246,1.0,3.0,91,0.04,,---,0.04,VWS V14.01,2013-08-25 13:21:00,
2013-08-25 08:26:00,74.4,71.6,29.86,SW,230,2.0,7.0,91,0.04,,---,0.04,VWS V14.01,2013-08-25 13:26:00,
2013-08-25 08:31:00,74.4,71.6,29.86,SW,234,2.0,4.0,91,0.04,,---,0.04,VWS V14.01,2013-08-25 13:31:00,
2013-08-25 08:36:00,74.2,71.4,29.86,WSW,239,5.0,12.0,91,0.04,,---,0.04,VWS V14.01,2013-08-25 13:36:00,
2013-08-25 08:41:00,74.2,71.4,29.86,WSW,246,7.0,7.0,91,0.04,,---,0.04,VWS V14.01,2013-08-25 13:41:00,
2013-08-25 08:46:00,74.4,71.6,29.86,SSW,202,8.0,14.0,91,0.05,,---,0.05,VWS V14.01,2013-08-25 13:46:00,
2013-08-25 08:51:00,74.6,71.5,29.86,SW,229,5.0,6.0,90,0.05,,---,0.05,VWS V14.01,2013-08-25 13:51:00,
2013-08-25 08:55:00,74.6,71.5,29.86,SW,220,5.0,11.0,90,0.05,,---,0.05,VWS V14.01,2013-08-25 13:55:00,
2013-08-25 09:00:00,74.6,71.5,29.85,WSW,248,8.0,8.0,90,0.05,,---,0.05,VWS V14.01,2013-08-25 14:00:00,
2013-08-25 09:05:00,74.6,71.5,29.85,WSW,240,6.0,11.0,90,0.05,,---,0.05,VWS V14.01,2013-08-25 14:05:00,
2013-08-25 09:10:00,74.6,71.8,29.85,West,261,8.0,8.0,91,0.01,,---,0.05,VWS V14.01,2013-08-25 14:10:00,
2013-08-25 09:15:00,74.6,71.5,29.85,SW,224,6.0,14.0,90,0.01,,---,0.05,VWS V14.01,2013-08-25 14:15:00,
2013-08-25 09:20:00,74.7,71.6,29.85,SW,234,8.0,8.0,90,0.01,,---,0.05,VWS V14.01,2013-08-25 14:20:00,
2013-08-25 09:25:00,74.7,71.6,29.85,West,260,1.0,8.0,90,0.01,,---,0.05,VWS V14.01,2013-08-25 14:25:00,
2013-08-25 09:30:00,74.9,71.8,29.84,WSW,246,3.0,3.0,90,0.01,,---,0.05,VWS V14.01,2013-08-25 14:30:00,
2013-08-25 09:35:00,75.1,72.0,29.84,West,270,5.0,11.0,90,0.01,,---,0.05,VWS V14.01,2013-08-25 14:35:00,
2013-08-25 09:40:00,75.4,72.3,29.84,SW,230,11.0,11.0,90,0.01,,---,0.05,VWS V14.01,2013-08-25 14:40:00,
2013-08-25 09:45:00,76.3,72.2,29.84,SW,226,5.0,12.0,87,0.01,,---,0.05,VWS V14.01,2013-08-25 14:45:00,
2013-08-25 09:50:00,77.0,72.5,29.84,SW,220,2.0,12.0,86,0.01,,---,0.05,VWS V14.01,2013-08-25 14:50:00,
2013-08-25 09:55:00,77.9,73.0,29.84,WSW,254,7.0,14.0,85,0.00,,---,0.05,VWS V14.01,2013-08-25 14:55:00,
2013-08-25 10:00:00,78.5,72.6,29.83,SW,215,5.0,14.0,82,0.00,,---,0.05,VWS V14.01,2013-08-25 15:00:00,
2013-08-25 10:05:00,79.0,72.7,29.83,SSW,203,5.0,13.0,81,0.00,,---,0.05,VWS V14.01,2013-08-25 15:05:00,
2013-08-25 10:10:00,79.4,72.7,29.83,WSW,256,11.0,13.0,80,0.00,,---,0.05,VWS V14.01,2013-08-25 15:10:00,
2013-08-25 10:15:00,79.9,72.8,29.84,SW,223,3.0,16.0,79,0.00,,---,0.05,VWS V14.01,2013-08-25 15:15:00,
2013-08-25 10:20:00,80.5,73.0,29.84,WSW,254,6.0,16.0,78,0.00,,---,0.05,VWS V14.01,2013-08-25 15:20:00,
2013-08-25 10:25:00,80.9,73.0,29.84,WSW,239,6.0,12.0,77,0.00,,---,0.05,VWS V14.01,2013-08-25 15:25:00,
2013-08-25 10:30:00,81.6,73.7,29.84,WSW,250,5.0,12.0,77,0.00,,---,0.05,VWS V14.01,2013-08-25 15:30:00,
2013-08-25 10:35:00,82.0,72.5,29.84,WSW,253,9.0,12.0,73,0.00,,---,0.05,VWS V14.01,2013-08-25 15:35:00,
2013-08-25 10:40:00,82.2,72.7,29.84,WSW,239,7.0,14.0,73,0.00,,---,0.05,VWS V14.01,2013-08-25 15:40:00,
2013-08-25 10:45:00,82.6,73.5,29.83,SW,217,8.0,13.0,74,0.00,,---,0.05,VWS V14.01,2013-08-25 15:45:00,
2013-08-25 10:50:00,83.4,73.8,29.83,SW,232,10.0,13.0,73,0.00,,---,0.05,VWS V14.01,2013-08-25 15:50:00,
2013-08-25 10:55:00,83.6,73.2,29.83,WSW,254,7.0,12.0,71,0.00,,---,0.05,VWS V14.01,2013-08-25 15:55:00,
2013-08-25 11:00:00,83.8,73.4,29.83,SW,227,6.0,16.0,71,0.00,,---,0.05,VWS V14.01,2013-08-25 16:00:00,
2013-08-25 11:05:00,84.3,73.5,29.83,SW,233,5.0,12.0,70,0.00,,---,0.05,VWS V14.01,2013-08-25 16:05:00,
2013-08-25 11:10:00,84.5,72.8,29.83,WSW,246,12.0,12.0,68,0.00,,---,0.05,VWS V14.01,2013-08-25 16:10:00,
2013-08-25 11:15:00,84.5,72.8,29.83,WSW,243,9.0,17.0,68,0.00,,---,0.05,VWS V14.01,2013-08-25 16:15:00,
2013-08-25 11:20:00,84.5,72.8,29.83,SW,236,9.0,17.0,68,0.00,,---,0.05,VWS V14.01,2013-08-25 16:20:00,
2013-08-25 11:25:00,84.7,73.0,29.83,SW,223,3.0,16.0,68,0.00,,---,0.05,VWS V14.01,2013-08-25 16:25:00,
2013-08-25 11:30:00,85.1,73.4,29.83,West,265,5.0,16.0,68,0.00,,---,0.05,VWS V14.01,2013-08-25 16:30:00,
2013-08-25 11:35:00,85.3,73.1,29.83,SW,234,6.0,14.0,67,0.00,,---,0.05,VWS V14.01,2013-08-25 16:35:00,
2013-08-25 11:40:00,85.5,73.3,29.83,WSW,244,5.0,16.0,67,0.00,,---,0.05,VWS V14.01,2013-08-25 16:40:00,
2013-08-25 11:45:00,85.7,73.5,29.82,WSW,241,5.0,16.0,67,0.00,,---,0.05,VWS V14.01,2013-08-25 16:45:00,
2013-08-25 11:50:00,86.1,73.9,29.82,WSW,253,5.0,16.0,67,0.00,,---,0.05,VWS V14.01,2013-08-25 16:50:00,
2013-08-25 11:55:00,86.3,73.6,29.82,West,263,7.0,13.0,66,0.00,,---,0.05,VWS V14.01,2013-08-25 16:55:00,
2013-08-25 12:00:00,86.3,73.2,29.82,WSW,239,7.0,14.0,65,0.00,,---,0.05,VWS V14.01,2013-08-25 17:00:00,
2013-08-25 12:05:00,86.3,74.1,29.82,West,275,7.0,11.0,67,0.00,,---,0.05,VWS V14.01,2013-08-25 17:05:00,
2013-08-25 12:10:00,86.7,73.1,29.82,WSW,251,7.0,14.0,64,0.00,,---,0.05,VWS V14.01,2013-08-25 17:10:00,
2013-08-25 12:15:00,87.2,73.1,29.82,SSW,200,7.0,16.0,63,0.00,,---,0.05,VWS V14.01,2013-08-25 17:15:00,
2013-08-25 12:20:00,87.2,73.6,29.82,WSW,240,7.0,16.0,64,0.00,,---,0.05,VWS V14.01,2013-08-25 17:20:00,
2013-08-25 12:25:00,87.6,73.0,29.82,SW,216,3.0,12.0,62,0.00,,---,0.05,VWS V14.01,2013-08-25 17:25:00,
2013-08-25 12:30:00,87.8,73.2,29.81,SW,232,5.0,14.0,62,0.00,,---,0.05,VWS V14.01,2013-08-25 17:30:00,
2013-08-25 12:35:00,88.0,73.4,29.81,WSW,247,5.0,12.0,62,0.00,,---,0.05,VWS V14.01,2013-08-25 17:35:00,
2013-08-25 12:40:00,88.0,72.9,29.81,WSW,239,7.0,16.0,61,0.00,,---,0.05,VWS V14.01,2013-08-25 17:40:00,
2013-08-25 12:45:00,88.2,73.1,29.81,SW,223,12.0,15.0,61,0.00,,---,0.05,VWS V14.01,2013-08-25 17:45:00,
2013-08-25 12:50:00,88.0,72.9,29.81,WSW,258,6.0,16.0,61,0.00,,---,0.05,VWS V14.01,2013-08-25 17:50:00,
2013-08-25 12:55:00,88.0,73.4,29.81,WSW,248,10.0,14.0,62,0.00,,---,0.05,VWS V14.01,2013-08-25 17:55:00,
2013-08-25 13:00:00,88.6,74.4,29.81,WSW,244,7.0,14.0,63,0.00,,---,0.05,VWS V14.01,2013-08-25 18:00:00,
2013-08-25 13:05:00,89.3,73.6,29.81,West,265,10.0,12.0,60,0.00,,---,0.05,VWS V14.01,2013-08-25 18:05:00,
2013-08-25 13:10:00,89.0,73.3,29.81,WNW,298,10.0,16.0,60,0.00,,---,0.05,VWS V14.01,2013-08-25 18:10:00,
2013-08-25 13:15:00,89.3,73.6,29.81,WSW,244,5.0,13.0,60,0.00,,---,0.05,VWS V14.01,2013-08-25 18:15:00,
2013-08-25 13:20:00,89.3,73.1,29.81,West,260,10.0,14.0,59,0.00,,---,0.05,VWS V14.01,2013-08-25 18:20:00,
2013-08-25 13:25:00,89.5,73.8,29.81,WSW,247,6.0,11.0,60,0.00,,---,0.05,VWS V14.01,2013-08-25 18:25:00,
2013-08-25 13:30:00,89.9,73.7,29.81,West,264,10.0,13.0,59,0.00,,---,0.05,VWS V14.01,2013-08-25 18:30:00,
2013-08-25 13:35:00,89.9,73.7,29.81,WSW,257,8.0,12.0,59,0.00,,---,0.05,VWS V14.01,2013-08-25 18:35:00,
2013-08-25 13:40:00,90.1,74.3,29.81,WSW,250,3.0,13.0,60,0.00,,---,0.05,VWS V14.01,2013-08-25 18:40:00,
2013-08-25 13:45:00,89.9,74.2,29.81,West,261,5.0,11.0,60,0.00,,---,0.05,VWS V14.01,2013-08-25 18:45:00,
2013-08-25 13:50:00,89.7,74.0,29.81,West,263,5.0,12.0,60,0.00,,---,0.05,VWS V14.01,2013-08-25 18:50:00,
2013-08-25 13:55:00,89.5,74.8,29.81,West,281,8.0,12.0,62,0.00,,---,0.05,VWS V14.01,2013-08-25 18:55:00,
2013-08-25 14:00:00,89.3,74.1,29.80,WNW,284,3.0,12.0,61,0.00,,---,0.05,VWS V14.01,2013-08-25 19:00:00,
2013-08-25 14:05:00,89.0,73.3,29.80,West,261,7.0,12.0,60,0.00,,---,0.05,VWS V14.01,2013-08-25 19:05:00,
2013-08-25 14:10:00,89.3,73.6,29.80,WNW,282,4.0,13.0,60,0.00,,---,0.05,VWS V14.01,2013-08-25 19:10:00,
2013-08-25 14:15:00,88.6,73.4,29.80,WSW,248,6.0,12.0,61,0.00,,---,0.05,VWS V14.01,2013-08-25 19:15:00,
2013-08-25 14:20:00,88.2,74.5,29.80,WSW,246,8.0,12.0,64,0.00,,---,0.05,VWS V14.01,2013-08-25 19:20:00,
2013-08-25 14:25:00,88.8,74.6,29.80,West,278,5.0,11.0,63,0.00,,---,0.05,VWS V14.01,2013-08-25 19:25:00,
2013-08-25 14:30:00,89.7,74.5,29.80,West,260,8.0,12.0,61,0.00,,---,0.05,VWS V14.01,2013-08-25 19:30:00,
2013-08-25 14:35:00,90.1,74.3,29.80,WSW,251,6.0,10.0,60,0.00,,---,0.05,VWS V14.01,2013-08-25 19:35:00,
2013-08-25 14:40:00,90.5,74.2,29.80,West,267,5.0,11.0,59,0.00,,---,0.05,VWS V14.01,2013-08-25 19:40:00,
2013-08-25 14:45:00,90.7,75.4,29.80,WSW,239,9.0,11.0,61,0.00,,---,0.05,VWS V14.01,2013-08-25 19:45:00,
2013-08-25 14:50:00,91.0,75.2,29.80,West,260,6.0,11.0,60,0.00,,---,0.05,VWS V14.01,2013-08-25 19:50:00,
2013-08-25 14:55:00,91.2,74.4,29.80,West,267,8.0,13.0,58,0.00,,---,0.05,VWS V14.01,2013-08-25 19:55:00,
2013-08-25 15:00:00,91.2,74.9,29.79,West,267,12.0,13.0,59,0.00,,---,0.05,VWS V14.01,2013-08-25 20:00:00,
2013-08-25 15:05:00,91.4,74.6,29.79,SW,233,12.0,14.0,58,0.00,,---,0.05,VWS V14.01,2013-08-25 20:05:00,
2013-08-25 15:10:00,91.2,74.9,29.79,West,271,10.0,16.0,59,0.00,,---,0.05,VWS V14.01,2013-08-25 20:10:00,
2013-08-25 15:15:00,91.0,74.2,29.79,WSW,240,5.0,10.0,58,0.00,,---,0.05,VWS V14.01,2013-08-25 20:15:00,
2013-08-25 15:20:00,91.2,74.4,29.79,SW,226,6.0,11.0,58,0.00,,---,0.05,VWS V14.01,2013-08-25 20:20:00,
2013-08-25 15:25:00,91.2,74.9,29.79,SW,224,8.0,13.0,59,0.00,,---,0.05,VWS V14.01,2013-08-25 20:25:00,
2013-08-25 15:30:00,91.0,74.2,29.79,West,275,11.0,19.0,58,0.00,,---,0.05,VWS V14.01,2013-08-25 20:30:00,
2013-08-25 15:35:00,91.2,74.9,29.79,West,280,10.0,13.0,59,0.00,,---,0.05,VWS V14.01,2013-08-25 20:35:00,
2013-08-25 15:40:00,91.0,74.7,29.79,WSW,258,7.0,13.0,59,0.00,,---,0.05,VWS V14.01,2013-08-25 20:40:00,
2013-08-25 15:45:00,91.4,74.6,29.78,WSW,247,8.0,11.0,58,0.00,,---,0.05,VWS V14.01,2013-08-25 20:45:00,
2013-08-25 15:49:00,91.6,75.2,29.78,WSW,251,6.0,12.0,59,0.00,,---,0.05,VWS V14.01,2013-08-25 20:49:00,
2013-08-25 15:54:00,91.6,74.7,29.78,SW,227,10.0,16.0,58,0.00,,---,0.05,VWS V14.01,2013-08-25 20:54:00,
2013-08-25 15:59:00,91.6,75.8,29.78,SW,236,6.0,16.0,60,0.00,,---,0.05,VWS V14.01,2013-08-25 20:59:00,
2013-08-25 16:04:00,91.4,74.0,29.78,WSW,250,12.0,14.0,57,0.00,,---,0.05,VWS V14.01,2013-08-25 21:04:00,
2013-08-25 16:09:00,91.2,74.4,29.78,WSW,243,8.0,15.0,58,0.00,,---,0.05,VWS V14.01,2013-08-25 21:09:00,
2013-08-25 16:14:00,91.0,74.7,29.78,SW,230,11.0,16.0,59,0.00,,---,0.05,VWS V14.01,2013-08-25 21:14:00,
2013-08-25 16:19:00,91.0,74.7,29.78,West,265,5.0,16.0,59,0.00,,---,0.05,VWS V14.01,2013-08-25 21:19:00,
2013-08-25 16:24:00,90.7,73.9,29.78,West,261,8.0,17.0,58,0.00,,---,0.05,VWS V14.01,2013-08-25 21:24:00,
2013-08-25 16:29:00,90.7,74.9,29.78,WNW,302,7.0,17.0,60,0.00,,---,0.05,VWS V14.01,2013-08-25 21:29:00,
2013-08-25 16:34:00,90.7,74.4,29.78,WSW,237,11.0,17.0,59,0.00,,---,0.05,VWS V14.01,2013-08-25 21:34:00,
2013-08-25 16:39:00,91.0,74.7,29.78,WSW,237,7.0,18.0,59,0.00,,---,0.05,VWS V14.01,2013-08-25 21:39:00,
2013-08-25 16:44:00,91.0,74.2,29.78,SW,230,8.0,14.0,58,0.00,,---,0.05,VWS V14.01,2013-08-25 21:44:00,
2013-08-25 16:49:00,91.0,74.2,29.78,WSW,237,7.0,19.0,58,0.00,,---,0.05,VWS V14.01,2013-08-25 21:49:00,
2013-08-25 16:54:00,90.5,74.7,29.78,WSW,246,9.0,16.0,60,0.00,,---,0.05,VWS V14.01,2013-08-25 21:54:00,
2013-08-25 16:59:00,90.7,74.4,29.78,WSW,239,8.0,17.0,59,0.00,,---,0.05,VWS V14.01,2013-08-25 21:59:00,
2013-08-25 17:04:00,90.7,74.9,29.78,WSW,246,12.0,14.0,60,0.00,,---,0.05,VWS V14.01,2013-08-25 22:04:00,
2013-08-25 17:09:00,90.5,74.7,29.78,West,260,14.0,16.0,60,0.00,,---,0.05,VWS V14.01,2013-08-25 22:09:00,
2013-08-25 17:14:00,90.3,74.5,29.78,WSW,253,10.0,14.0,60,0.00,,---,0.05,VWS V14.01,2013-08-25 22:14:00,
2013-08-25 17:19:00,90.3,75.0,29.78,West,274,7.0,14.0,61,0.00,,---,0.05,VWS V14.01,2013-08-25 22:19:00,
2013-08-25 17:24:00,90.1,74.8,29.78,WSW,250,10.0,13.0,61,0.00,,---,0.05,VWS V14.01,2013-08-25 22:24:00,
2013-08-25 17:29:00,90.1,75.3,29.78,SW,229,7.0,17.0,62,0.00,,---,0.05,VWS V14.01,2013-08-25 22:29:00,
2013-08-25 17:34:00,89.9,75.1,29.78,SW,230,10.0,16.0,62,0.00,,---,0.05,VWS V14.01,2013-08-25 22:34:00,
2013-08-25 17:39:00,89.9,75.6,29.78,SW,232,5.0,16.0,63,0.00,,---,0.05,VWS V14.01,2013-08-25 22:39:00,
2013-08-25 17:44:00,89.9,75.1,29.78,SW,216,5.0,12.0,62,0.00,,---,0.05,VWS V14.01,2013-08-25 22:44:00,
2013-08-25 17:49:00,89.9,75.1,29.78,SW,215,6.0,14.0,62,0.00,,---,0.05,VWS V14.01,2013-08-25 22:49:00,
2013-08-25 17:54:00,89.7,75.4,29.78,SW,233,5.0,11.0,63,0.00,,---,0.05,VWS V14.01,2013-08-25 22:54:00,
2013-08-25 17:59:00,89.3,75.5,29.78,WSW,253,7.0,12.0,64,0.00,,---,0.05,VWS V14.01,2013-08-25 22:59:00,
2013-08-25 18:04:00,88.8,75.5,29.78,SW,227,7.0,15.0,65,0.00,,---,0.05,VWS V14.01,2013-08-25 23:04:00,
2013-08-25 18:09:00,88.8,75.5,29.78,WSW,244,7.0,15.0,65,0.00,,---,0.05,VWS V14.01,2013-08-25 23:09:00,
2013-08-25 18:14:00,88.6,75.3,29.78,SW,217,6.0,12.0,65,0.00,,---,0.05,VWS V14.01,2013-08-25 23:14:00,
2013-08-25 18:19:00,88.4,75.6,29.79,WSW,243,7.0,13.0,66,0.00,,---,0.05,VWS V14.01,2013-08-25 23:19:00,
2013-08-25 18:24:00,88.0,75.7,29.79,WSW,240,7.0,11.0,67,0.00,,---,0.05,VWS V14.01,2013-08-25 23:24:00,
2013-08-25 18:29:00,87.6,75.3,29.79,WSW,248,4.0,14.0,67,0.00,,---,0.05,VWS V14.01,2013-08-25 23:29:00,
2013-08-25 18:34:00,87.4,75.1,29.79,SW,232,6.0,11.0,67,0.00,,---,0.05,VWS V14.01,2013-08-25 23:34:00,
2013-08-25 18:39:00,87.4,75.1,29.79,WSW,240,3.0,11.0,67,0.00,,---,0.05,VWS V14.01,2013-08-25 23:39:00,
2013-08-25 18:44:00,87.0,75.2,29.79,West,280,8.0,14.0,68,0.00,,---,0.05,VWS V14.01,2013-08-25 23:44:00,
2013-08-25 18:49:00,87.0,75.6,29.79,WSW,253,5.0,14.0,69,0.00,,---,0.05,VWS V14.01,2013-08-25 23:49:00,
2013-08-25 18:54:00,86.7,75.3,29.79,WSW,237,5.0,7.0,69,0.00,,---,0.05,VWS V14.01,2013-08-25 23:54:00,
2013-08-25 18:59:00,86.7,75.3,29.79,WSW,247,4.0,10.0,69,0.00,,---,0.05,VWS V14.01,2013-08-25 23:59:00,
2013-08-25 19:04:00,86.7,75.3,29.79,West,270,7.0,7.0,69,0.00,,---,0.05,VWS V14.01,2013-08-26 00:04:00,
2013-08-25 19:09:00,86.5,75.1,29.79,SW,233,3.0,8.0,69,0.00,,---,0.05,VWS V14.01,2013-08-26 00:09:00,
2013-08-25 19:14:00,86.3,75.4,29.79,WSW,239,3.0,8.0,70,0.00,,---,0.05,VWS V14.01,2013-08-26 00:14:00,
2013-08-25 19:19:00,86.1,75.6,29.79,WSW,243,6.0,8.0,71,0.00,,---,0.05,VWS V14.01,2013-08-26 00:19:00,
2013-08-25 19:24:00,85.9,75.4,29.79,WSW,240,4.0,8.0,71,0.00,,---,0.05,VWS V14.01,2013-08-26 00:24:00,
2013-08-25 19:29:00,85.7,75.6,29.79,SW,230,3.0,8.0,72,0.00,,---,0.05,VWS V14.01,2013-08-26 00:29:00,
2013-08-25 19:34:00,85.5,75.4,29.79,WSW,244,4.0,7.0,72,0.00,,---,0.05,VWS V14.01,2013-08-26 00:34:00,
2013-08-25 19:39:00,85.3,75.7,29.79,SW,227,3.0,7.0,73,0.00,,---,0.05,VWS V14.01,2013-08-26 00:39:00,
2013-08-25 19:44:00,84.9,75.7,29.79,SW,216,2.0,4.0,74,0.00,,---,0.05,VWS V14.01,2013-08-26 00:44:00,
2013-08-25 19:49:00,84.7,75.9,29.79,WSW,237,4.0,6.0,75,0.00,,---,0.05,VWS V14.01,2013-08-26 00:49:00,
2013-08-25 19:54:00,84.5,75.7,29.79,SW,226,1.0,7.0,75,0.00,,---,0.05,VWS V14.01,2013-08-26 00:54:00,
2013-08-25 19:59:00,84.1,75.7,29.79,WSW,244,2.0,7.0,76,0.00,,---,0.05,VWS V14.01,2013-08-26 00:59:00,
2013-08-25 20:04:00,84.0,75.6,29.79,WSW,244,1.0,5.0,76,0.00,,---,0.05,VWS V14.01,2013-08-26 01:04:00,
2013-08-25 20:09:00,83.8,75.8,29.79,SW,233,1.0,5.0,77,0.00,,---,0.05,VWS V14.01,2013-08-26 01:09:00,
2013-08-25 20:14:00,83.4,75.8,29.79,WSW,241,0.0,2.0,78,0.00,,---,0.05,VWS V14.01,2013-08-26 01:14:00,
2013-08-25 20:19:00,83.0,75.8,29.80,WSW,239,0.0,2.0,79,0.00,,---,0.05,VWS V14.01,2013-08-26 01:19:00,
2013-08-25 20:24:00,82.6,75.8,29.80,SW,236,1.0,2.0,80,0.00,,---,0.05,VWS V14.01,2013-08-26 01:24:00,
2013-08-25 20:29:00,82.4,75.6,29.80,SW,236,0.0,2.0,80,0.00,,---,0.05,VWS V14.01,2013-08-26 01:29:00,
2013-08-25 20:34:00,82.2,75.8,29.81,SW,226,1.0,2.0,81,0.00,,---,0.05,VWS V14.01,2013-08-26 01:34:00,
2013-08-25 20:39:00,81.8,75.8,29.81,SW,230,2.0,2.0,82,0.00,,---,0.05,VWS V14.01,2013-08-26 01:39:00,
2013-08-25 20:44:00,81.6,75.6,29.81,SW,229,2.0,5.0,82,0.00,,---,0.05,VWS V14.01,2013-08-26 01:44:00,
2013-08-25 20:49:00,81.8,75.8,29.81,SW,233,1.0,6.0,82,0.00,,---,0.05,VWS V14.01,2013-08-26 01:49:00,
2013-08-25 20:54:00,81.6,75.6,29.81,WSW,251,2.0,5.0,82,0.00,,---,0.05,VWS V14.01,2013-08-26 01:54:00,
2013-08-25 20:59:00,81.6,75.6,29.81,WSW,248,1.0,5.0,82,0.00,,---,0.05,VWS V14.01,2013-08-26 01:59:00,
2013-08-25 21:04:00,81.4,75.7,29.81,SW,230,1.0,5.0,83,0.00,,---,0.05,VWS V14.01,2013-08-26 02:04:00,
2013-08-25 21:09:00,81.2,75.6,29.81,SW,234,2.0,5.0,83,0.00,,---,0.05,VWS V14.01,2013-08-26 02:09:00,
2013-08-25 21:14:00,81.1,75.4,29.81,WSW,237,2.0,4.0,83,0.00,,---,0.05,VWS V14.01,2013-08-26 02:14:00,
2013-08-25 21:19:00,81.1,75.4,29.81,WSW,241,1.0,4.0,83,0.00,,---,0.05,VWS V14.01,2013-08-26 02:19:00,
2013-08-25 21:24:00,81.1,75.4,29.81,WSW,239,4.0,6.0,83,0.00,,---,0.05,VWS V14.01,2013-08-26 02:24:00,
2013-08-25 21:29:00,81.1,75.4,29.81,SW,234,2.0,6.0,83,0.00,,---,0.05,VWS V14.01,2013-08-26 02:29:00,
2013-08-25 21:34:00,81.1,75.4,29.82,WSW,237,2.0,3.0,83,0.00,,---,0.05,VWS V14.01,2013-08-26 02:34:00,
2013-08-25 21:39:00,81.1,75.4,29.82,WSW,247,3.0,4.0,83,0.00,,---,0.05,VWS V14.01,2013-08-26 02:39:00,
2013-08-25 21:44:00,80.9,75.3,29.82,SW,232,2.0,4.0,83,0.00,,---,0.05,VWS V14.01,2013-08-26 02:44:00,
2013-08-25 21:49:00,80.7,75.4,29.83,WSW,243,2.0,4.0,84,0.00,,---,0.05,VWS V14.01,2013-08-26 02:49:00,
2013-08-25 21:54:00,80.5,75.2,29.83,SW,224,1.0,3.0,84,0.00,,---,0.05,VWS V14.01,2013-08-26 02:54:00,
2013-08-25 21:59:00,80.3,75.4,29.83,SW,227,2.0,3.0,85,0.00,,---,0.05,VWS V14.01,2013-08-26 02:59:00,
2013-08-25 22:04:00,80.1,75.2,29.83,SW,233,1.0,3.0,85,0.00,,---,0.05,VWS V14.01,2013-08-26 03:04:00,
2013-08-25 22:08:00,80.1,75.2,29.83,WSW,243,1.0,4.0,85,0.00,,---,0.05,VWS V14.01,2013-08-26 03:08:00,
2013-08-25 22:13:00,79.9,75.0,29.83,SW,233,1.0,3.0,85,0.00,,---,0.05,VWS V14.01,2013-08-26 03:13:00,
2013-08-25 22:18:00,79.8,75.2,29.83,SW,236,0.0,3.0,86,0.00,,---,0.05,VWS V14.01,2013-08-26 03:18:00,
2013-08-25 22:23:00,79.8,75.2,29.83,SW,233,1.0,3.0,86,0.00,,---,0.05,VWS V14.01,2013-08-26 03:23:00,
2013-08-25 22:28:00,79.6,75.4,29.83,SW,224,0.0,3.0,87,0.00,,---,0.05,VWS V14.01,2013-08-26 03:28:00,
2013-08-25 22:33:00,79.2,75.3,29.83,SW,232,2.0,2.0,88,0.00,,---,0.05,VWS V14.01,2013-08-26 03:33:00,
2013-08-25 22:38:00,79.2,75.3,29.83,SW,229,1.0,3.0,88,0.00,,---,0.05,VWS V14.01,2013-08-26 03:38:00,
2013-08-25 22:43:00,79.2,75.0,29.83,WSW,244,4.0,4.0,87,0.00,,---,0.05,VWS V14.01,2013-08-26 03:43:00,
2013-08-25 22:48:00,79.4,75.2,29.84,SW,232,3.0,4.0,87,0.00,,---,0.05,VWS V14.01,2013-08-26 03:48:00,
2013-08-25 22:53:00,79.4,75.2,29.84,SW,226,2.0,3.0,87,0.00,,---,0.05,VWS V14.01,2013-08-26 03:53:00,
2013-08-25 22:58:00,79.4,75.5,29.84,WSW,241,1.0,4.0,88,0.00,,---,0.05,VWS V14.01,2013-08-26 03:58:00,
2013-08-25 23:01:00,79.4,75.5,29.84,WSW,239,3.0,3.0,88,0.00,,---,0.05,VWS V14.01,2013-08-26 04:01:00,
2013-08-25 23:06:00,79.2,75.3,29.84,SW,232,1.0,3.0,88,0.00,,---,0.05,VWS V14.01,2013-08-26 04:06:00,
2013-08-25 23:11:00,79.2,75.3,29.84,SW,236,2.0,2.0,88,0.00,,---,0.05,VWS V14.01,2013-08-26 04:11:00,
2013-08-25 23:16:00,79.2,75.3,29.83,WSW,237,0.0,3.0,88,0.00,,---,0.05,VWS V14.01,2013-08-26 04:16:00,
2013-08-25 23:21:00,79.2,75.3,29.83,West,270,1.0,3.0,88,0.00,,---,0.05,VWS V14.01,2013-08-26 04:21:00,
2013-08-25 23:26:00,79.2,75.3,29.83,WSW,239,3.0,3.0,88,0.00,,---,0.05,VWS V14.01,2013-08-26 04:26:00,
2013-08-25 23:31:00,79.2,75.3,29.83,WSW,247,1.0,3.0,88,0.00,,---,0.05,VWS V14.01,2013-08-26 04:31:00,
2013-08-25 23:36:00,79.2,75.3,29.83,WSW,243,5.0,6.0,88,0.00,,---,0.05,VWS V14.01,2013-08-26 04:36:00,
2013-08-25 23:41:00,79.2,75.7,29.83,WSW,237,3.0,3.0,89,0.00,,---,0.05,VWS V14.01,2013-08-26 04:41:00,
2013-08-25 23:46:00,79.2,75.7,29.83,West,261,7.0,7.0,89,0.00,,---,0.05,VWS V14.01,2013-08-26 04:46:00,
2013-08-25 23:51:00,79.2,75.3,29.83,WSW,237,2.0,3.0,88,0.00,,---,0.05,VWS V14.01,2013-08-26 04:51:00,
2013-08-25 23:56:00,79.2,75.3,29.83,WSW,240,2.0,6.0,88,0.00,,---,0.05,VWS V14.01,2013-08-26 04:56:00,